Location: Harwich
(41.6860°N, 70.0760°W)
Time: 21:09:02
(UTC-04:00)

ISS - Visible Passes

Search period start: 17 October 2019 00:00
Search period end: 27 October 2019 00:00
Orbit: 411 x 421 km, 51.6° (Epoch: 17 October)

Date Brightness Start Highest point End Pass type
(mag) Time Alt. Az. Time Alt. Az. Time Alt. Az.
23 Oct -1.5 06:13:17 10° SSW 06:16:07 25° SE 06:18:57 10° ENE visible
24 Oct -0.8 05:25:43 10° SSE 05:27:43 15° SE 05:29:43 10° E visible
25 Oct -3.5 06:12:10 10° SW 06:15:31 72° SE 06:18:52 10° ENE visible
26 Oct -2.6 05:25:37 26° S 05:26:59 40° SE 05:30:11 10° ENE visible
